Starlink 31845

operational
NORAD ID: 60129 Int'l Des: 2024-118 Owner: SPXS Country: US Constellation: starlink
LEOCIRCULAR

Starlink 31845について

説明を読み込み中...

リアルタイム位置

3D地球を読み込み中...

次回通過

高度履歴

Altitude vs Time

uPlot chart will show altitude changes over time

軌道要素

1 60129U 24118S 25258.88720777 .00000454 00000-0 27440-4 0 9996
2 60129 53.1600 116.5000 0001036 83.8527 276.2592 15.30200637 68960
Epoch: Sep 15, 2025 • Age: 22 hours

現在のステータス

高度 479.1 km
速度 7.63 km/s
衛星直下点 44.27°N, 129.74°W
打ち上げ日 Jun 24, 2024
運用期間 1.2 years
タイプ internet

技術仕様

分類 Payload
質量 730.00 kg
乾燥質量 700.00 kg
総質量 730.00 kg
長さ 0.30 m
直径 4.10 m
スパン 29.00 m
形状 Box + pan
製造者 SPXS
バスタイプ Starlink V2M
フェーズステータス In Orbit
所有者/国 SPXS/US

大規模コンステレーション

Loading constellations...